TO-108
1 44881U 19093C   25060.79792351  .00002371  00000-0  28240-3 0  9995
2 44881  97.8005 138.5255 0013628 193.7506 166.3340 14.85211736281266
FloripaSat 1
1 44885U 19093G   25060.79816060  .00012077  00000-0  10647-2 0  9998
2 44885  97.8204 148.3182 0011273 173.8762 186.2599 14.96534736281814
RS-44
1 44909U 19096E   25060.56149156  .00000044  00000-0  12899-3 0  9991
2 44909  82.5198 293.7519 0217591 169.1758 191.4139 12.79738729241896
UPMSat 2
1 46276U 20061E   25060.28009926  .00057703  00000-0  87205-3 0  9990
2 46276  97.2586 132.2883 0000889 187.0400 173.0842 15.54532468249818
SALSAT
1 46495U 20068K   25060.86321705  .00014782  00000-0  68114-3 0  9994
2 46495  97.8517  34.5068 0013501 139.5562 220.6678 15.20308998243368
CubeSX-Sirius-HSE
1 47951U 21022V   25060.83692348  .00109488  00000-0  15769-2 0  9999
2 47951  97.4314 328.6832 0004182 315.8557  44.2363 15.55644216218166
CubeSX-HSE
1 47952U 21022W   25060.81207961  .00109569  00000-0  15452-2 0  9990
2 47952  97.4316 328.8479 0003788 305.0329  55.0570 15.56218377218174
KSU-Cubesat
1 47954U 21022Y   25060.79780995  .00448536  00000-0  20311-2 0  9992
2 47954  97.4261 333.4170 0002726 125.8947 234.2576 15.82791276218181
GRBAlpha
1 47959U 21022AD  25060.83985568  .00109494  00000-0  15557-2 0  9998
2 47959  97.4300 329.0302 0004070 313.5647  46.5269 15.56014915217007
Orbicraft-Zorkiy
1 47960U 21022AE  25060.78965387  .00215495  00000-0  18048-2 0  9998
2 47960  97.4285 332.3231 0000204 319.0553  41.0694 15.69307447217877
TUBIN
1 48900U 21059X   25060.80848697  .00052566  00000-0  95421-3 0  9999
2 48900  97.6681 222.7877 0005028 249.0805 110.9907 15.49403064204535
LEDSAT
1 49069U 21073D   25060.73202635  .00061702  00000-0  12421-2 0  9990
2 49069  97.4003 139.1387 0012286  85.8181 274.4472 15.46305357195931
CUTE
1 49263U 21088D   25060.14469282  .00023327  00000-0  54498-3 0  9992
2 49263  97.4615 133.7875 0008590 241.9395 118.0984 15.42149814188925
TeikyoSat 4
1 49396U 21102B   25060.57663818  .00004626  00000-0  31301-3 0  9993
2 49396  97.4252 102.5800 0014383 113.9410 246.3326 15.06913899181485
Z-Sat
1 49399U 21102E   25060.80736829  .00008938  00000-0  50712-3 0  9992
2 49399  97.3949 105.3233 0020119  90.6136 269.7400 15.13007019181883
KOSEN 1
1 49402U 21102H   25060.69610438  .00012663  00000-0  62092-3 0  9995
2 49402  97.3856 107.9255 0017901  70.9886 289.3285 15.18114834182121
HO-113
1 50466U 21131B   25060.82258663  .00001492  00000-0  48207-3 0  9992
2 50466  98.5113 150.6881 0005182  81.5190 278.6586 14.40581303167082
IRIS-A
1 51044U 22002BN  25060.42492786  .00111774  00000-0  13194-2 0  9996
2 51044  97.3410 135.8966 0004210 193.0531 167.0618 15.60953978174090
Foresail-1
1 52766U 22057AL  25060.84558298  .00101499  00000-0  12311-2 0  9998
2 52766  97.5998 203.3799 0007020 279.1822  80.8639 15.60257757154197
SNUGLITE 2
1 52899U 22065F   25060.84206532  .00003100  00000-0  61735-3 0  9990
2 52899  98.1505 203.9081 0008432  70.2368 289.9742 14.62721480141900
IO-117
1 53106U 22080B   25051.21822557 -.00000003  00000-0  00000+0 0  9995
2 53106  70.1434 106.3440 0008542  48.0089 312.1297  6.42557744 61200
FO-118
1 54684U 22167C   25060.78837805  .01717144  22465-2  19843-2 0  9997
2 54684  97.5987 226.2058 0010510 290.5683  69.4472 16.09381278124216
UmKA 1 (RS40S)
1 57172U 23091G   25060.84399901  .00010901  00000-0  61152-3 0  9992
2 57172  97.5726 116.7921 0014026 322.3325  37.6923 15.13456902 92388
CubeBel-2 (EU11S)
1 57175U 23091K   25060.83774266  .00016509  00000-0  85118-3 0  9993
2 57175  97.5727 117.4028 0012141 332.7684  27.2911 15.16376047 92428
VERONIKA
1 58261U 23174F   25060.77862042  .00082056  00000-0  16116-2 0  9996
2 58261  97.4249 142.8135 0006227  45.4902 314.6855 15.46998822 73145
KAFASAT
1 58317U 23174BP  25060.77941626  .00300128  00000-0  23020-2 0  9999
2 58317  97.4118 146.5540 0004581 316.0312  44.0586 15.71182748 73411
ENSO
1 58470U 23185J   25060.82250293  .00054111  00000-0  12034-2 0  9991
2 58470  97.3863 133.5975 0008555  84.7183 275.5041 15.43443034 69582
EIRSAT-1
1 58472U 23185L   25060.80118517  .00077266  00000-0  14699-2 0  9998
2 58472  97.3858 134.3472 0007178  83.9287 276.2781 15.47935732 69635
SONATE-2
1 59112U 24043Q   25060.85842509  .00027120  00000-0  91117-3 0  9999
2 59112  97.4993 190.4682 0012259 109.0035 251.2535 15.30739817 55050
MO-122
1 60209U 24125G   25060.56516205  .00030142  00000-0  99850-3 0  9998
2 60209  97.2922 273.5468 0021696 133.0995 227.2066 15.31013922 36628
GRBBeta
1 60237U 24128C   25060.47715556  .00008761  00000-0  68328-3 0  9990
2 60237  61.9917  68.2386 0042474  34.5861 325.7979 15.01096719 35160
Curium One
1 60242U 24128H   25060.38388258  .00014113  00000-0  10489-2 0  9993
2 60242  61.9818  68.0823 0042907  29.5053 330.8446 15.02532827 35160
ROBUSTA-3A
1 60243U 24128J   25060.35891134  .00013980  00000-0  10514-2 0  9993
2 60243  61.9884  68.6917 0041021  27.3500 332.9738 15.02156377 35151
CatSat
1 60246U 24125J   25060.56777469  .00017223  00000-0  62123-3 0  9998
2 60246  97.2706 273.7601 0046739  90.0788 270.5807 15.27527684 34708
HYPERVIEW-1G (RS66S)
1 61772U 24199AP  25060.80145050  .00030785  00000-0  10660-2 0  9992
2 61772  97.3698 290.1488 0014972 183.6695 176.4438 15.29696132 61677
AO-123
1 61781U 24199AY  25060.80617904  .00013402  00000-0  51901-3 0  9995
2 61781  97.3706 289.8509 0016230 185.6043 174.5016 15.26169071 61657
ZIMSAT 2
1 61783U 24199BA  25060.82287531  .00046536  00000-0  15157-2 0  9994
2 61783  97.3695 290.2667 0015868 183.1349 176.9796 15.31570983 64833
POEM 4 (BGS ARPIT)
1 62461U 24253C   25060.57751018  .00254771  34108-4  90172-3 0  9990
2 62461  55.2181 324.9652 0009830 101.0905 259.1254 15.88596992  9616
HADES-R (SO-124)
1 62690U 25009CK  25060.13638979  .00054332  00000-0  25476-2 0  9991
2 62690  97.4184 141.9674 0002798  96.9322 263.2232 15.19471186  6848
